Weather History for Chipley, FL

Change the Weather History Date:

Friday, June 28, 2013

  Actual Average (KMAI) Record (KMAI)
Temperature  
Mean Temperature 88 °F 81 °F  
Max Temperature 96 °F 92 °F 100 °F (1998)
Min Temperature 80 °F 71 °F 63 °F (2012)
Degree Days  
Heating Degree Days 0    
Month to date heating degree days  
Since 1 June heating degree days  
Since 1 July heating degree days  
Cooling Degree Days 23    
Month to date cooling degree days  
Year to date cooling degree days  
Since 1 June cooling degree days  
Growing Degree Days 38 (Base 50)    
Moisture  
Dew Point 74 °F    
Average Humidity 64    
Maximum Humidity 84    
Minimum Humidity 44    
Precipitation  
Precipitation 0.00 in 0.18 in 0.44 in (2004)
Month to date precipitation 5.21  
Year to date precipitation 27.43  
Sea Level Pressure  
Sea Level Pressure 29.89 in    
Wind  
Wind Speed 5 mph (WSW)    
Max Wind Speed 10 mph    
Max Gust Speed -    
Visibility 10 miles    
Events      
T = Trace of Precipitation, MM = Missing Value Source: NWS Daily Summary

Daily Weather History Graph

Daily Weather History Graph

Search for Another Location

Airport:

Trip Planner

Search our weather history database for the weather conditions in past years. The results will help you decide how hot, cold, wet, or windy it might be!

Date:

Astronomy

Jun. 28, 2013 Rise Set
Actual Time 5:41 AM CDT 7:49 PM CDT
Civil Twilight 5:14 AM CDT 8:17 PM CDT
Nautical Twilight 4:40 AM CDT 8:50 PM CDT
Astronomical Twilight 4:04 AM CDT 9:27 PM CDT
Moon 11:45 PM CDT (6/28) 11:23 AM CDT (6/28)
Length of Visible Light 15h 02m
Length of Day
14h 07m
Waning Gibbous, 66% of the Moon is Illuminated
Jun 28
Waning Gibbous
Jun 29
Last Quarter
Jul 8
New
Jul 15
First Quarter
Jul 22
Full

Hourly Weather History & Observations

Time (CDT) Temp. Heat Index Dew Point Humidity Pressure Visibility Wind Dir Wind Speed Gust Speed Precip Events Conditions
12:15 AM 84.2 °F 92.3 °F 75.2 °F 74% 29.96 in 10.0 mi SW 3.5 mph - N/A   Mostly Cloudy
12:35 AM 84.2 °F 92.3 °F 75.2 °F 74% 29.95 in 10.0 mi SW 4.6 mph - N/A   Partly Cloudy
12:55 AM 84.2 °F 92.3 °F 75.2 °F 74% 29.96 in 10.0 mi SW 4.6 mph - N/A   Clear
1:35 AM 84.2 °F 92.3 °F 75.2 °F 74% 29.96 in 10.0 mi SW 5.8 mph - N/A   Clear
1:55 AM 82.4 °F 89.5 °F 75.2 °F 79% 29.96 in 10.0 mi SW 3.5 mph - N/A   Clear
2:15 AM 82.4 °F 89.5 °F 75.2 °F 79% 29.96 in 10.0 mi SW 3.5 mph - N/A   Partly Cloudy
2:35 AM 82.4 °F 89.5 °F 75.2 °F 79% 29.96 in 10.0 mi SSW 5.8 mph - N/A   Partly Cloudy
2:55 AM 82.4 °F 89.5 °F 75.2 °F 79% 29.95 in 10.0 mi SSW 6.9 mph - N/A   Partly Cloudy
3:15 AM 82.4 °F 89.5 °F 75.2 °F 79% 29.95 in 10.0 mi SSW 4.6 mph - N/A   Clear
3:35 AM 82.4 °F 89.5 °F 75.2 °F 79% 29.95 in 10.0 mi SW 3.5 mph - N/A   Clear
3:55 AM 82.4 °F 89.5 °F 75.2 °F 79% 29.94 in 10.0 mi SSW 5.8 mph - N/A   Clear
4:15 AM 82.4 °F 89.5 °F 75.2 °F 79% 29.93 in 10.0 mi SSW 4.6 mph - N/A   Clear
4:35 AM 82.4 °F 89.5 °F 75.2 °F 79% 29.93 in 10.0 mi SW 5.8 mph - N/A   Clear
4:55 AM 82.4 °F 89.5 °F 75.2 °F 79% 29.93 in 10.0 mi SW 5.8 mph - N/A   Clear
5:15 AM 80.6 °F 86.2 °F 75.2 °F 84% 29.93 in 10.0 mi SW 4.6 mph - N/A   Clear
5:35 AM 80.6 °F 86.2 °F 75.2 °F 84% 29.94 in 10.0 mi WSW 4.6 mph - N/A   Clear
5:55 AM 80.6 °F 86.2 °F 75.2 °F 84% 29.93 in 10.0 mi WSW 3.5 mph - N/A   Clear
6:15 AM 80.6 °F 86.2 °F 75.2 °F 84% 29.93 in 10.0 mi WSW 3.5 mph - N/A   Clear
6:35 AM 80.6 °F 86.2 °F 75.2 °F 84% 29.93 in 10.0 mi WSW 4.6 mph - N/A   Clear
6:55 AM 82.4 °F 89.5 °F 75.2 °F 79% 29.93 in 10.0 mi West 4.6 mph - N/A   Clear
7:15 AM 82.4 °F 89.5 °F 75.2 °F 79% 29.94 in 10.0 mi Calm Calm - N/A   Clear
7:35 AM 82.4 °F 89.5 °F 75.2 °F 79% 29.95 in 10.0 mi WSW 4.6 mph - N/A   Clear
7:55 AM 84.2 °F 92.3 °F 75.2 °F 74% 29.96 in 10.0 mi West 5.8 mph - N/A   Clear
8:15 AM 86.0 °F 95.1 °F 75.2 °F 70% 29.96 in 10.0 mi WNW 9.2 mph - N/A   Partly Cloudy
8:35 AM 87.8 °F 97.6 °F 75.2 °F 66% 29.96 in 10.0 mi WNW 9.2 mph - N/A   Scattered Clouds
8:55 AM 86.0 °F 93.4 °F 73.4 °F 66% 29.96 in 10.0 mi WNW 6.9 mph - N/A   Scattered Clouds
9:15 AM 87.8 °F 97.6 °F 75.2 °F 66% 29.96 in 10.0 mi WNW 10.4 mph - N/A   Mostly Cloudy
9:35 AM 87.8 °F 95.6 °F 73.4 °F 62% 29.96 in 10.0 mi West 9.2 mph - N/A   Mostly Cloudy
9:55 AM 87.8 °F 97.6 °F 75.2 °F 66% 29.94 in 10.0 mi NW 4.6 mph - N/A   Scattered Clouds
10:15 AM 87.8 °F 95.6 °F 73.4 °F 62% 29.94 in 10.0 mi WNW 5.8 mph - N/A   Mostly Cloudy
10:35 AM 89.6 °F 98.2 °F 73.4 °F 59% 29.94 in 10.0 mi West 9.2 mph - N/A   Mostly Cloudy
10:55 AM 91.4 °F 100.1 °F 73.4 °F 55% 29.94 in 10.0 mi WNW 5.8 mph - N/A   Mostly Cloudy
11:15 AM 89.6 °F 98.2 °F 73.4 °F 59% 29.94 in 10.0 mi WNW 5.8 mph - N/A   Mostly Cloudy
11:35 AM 89.6 °F 99.8 °F 75.2 °F 62% 29.94 in 10.0 mi WNW 5.8 mph - N/A   Scattered Clouds
11:55 AM 91.4 °F 102.5 °F 75.2 °F 59% 29.94 in 10.0 mi West 4.6 mph - N/A   Mostly Cloudy
12:15 PM 89.6 °F 99.8 °F 75.2 °F 62% 29.93 in 10.0 mi NNW 8.1 mph - N/A   Mostly Cloudy
12:35 PM 91.4 °F 100.1 °F 73.4 °F 55% 29.92 in 10.0 mi West 6.9 mph - N/A   Mostly Cloudy
12:55 PM 93.2 °F 102.4 °F 73.4 °F 52% 29.92 in 10.0 mi WNW 6.9 mph - N/A   Mostly Cloudy
1:15 PM 93.2 °F 100.5 °F 71.6 °F 49% 29.91 in 10.0 mi West 5.8 mph - N/A   Partly Cloudy
1:35 PM 95.0 °F 103.2 °F 71.6 °F 47% 29.90 in 10.0 mi Calm Calm - N/A   Partly Cloudy
1:55 PM 95.0 °F 103.2 °F 71.6 °F 47% 29.89 in 10.0 mi WSW 4.6 mph - N/A   Partly Cloudy
2:15 PM 96.8 °F 105.1 °F 71.6 °F 44% 29.89 in 10.0 mi West 4.6 mph - N/A   Scattered Clouds
2:35 PM 95.0 °F 103.2 °F 71.6 °F 47% 29.88 in 10.0 mi NNW 5.8 mph - N/A   Mostly Cloudy
2:55 PM 91.4 °F 100.1 °F 73.4 °F 55% 29.87 in 10.0 mi North 6.9 mph - N/A   Overcast
3:15 PM 91.4 °F 100.1 °F 73.4 °F 55% 29.86 in 10.0 mi North 4.6 mph - N/A   Mostly Cloudy
3:35 PM 93.2 °F 102.4 °F 73.4 °F 52% 29.85 in 10.0 mi NNE 8.1 mph - N/A   Mostly Cloudy
3:55 PM 93.2 °F 102.4 °F 73.4 °F 52% 29.84 in 10.0 mi North 4.6 mph - N/A   Mostly Cloudy
4:15 PM 95.0 °F 103.2 °F 71.6 °F 47% 29.83 in 10.0 mi West 8.1 mph - N/A   Mostly Cloudy
4:35 PM 93.2 °F 102.4 °F 73.4 °F 52% 29.83 in 10.0 mi NW 6.9 mph - N/A   Overcast
4:55 PM 96.8 °F 105.1 °F 71.6 °F 44% 29.82 in 10.0 mi WNW 6.9 mph - N/A   Scattered Clouds
5:15 PM 96.8 °F 105.1 °F 71.6 °F 44% 29.82 in 10.0 mi West 8.1 mph - N/A   Scattered Clouds
5:35 PM 95.0 °F 103.2 °F 71.6 °F 47% 29.82 in 10.0 mi WSW 8.1 mph - N/A   Mostly Cloudy
5:55 PM 96.8 °F 105.1 °F 71.6 °F 44% 29.82 in 10.0 mi West 6.9 mph - N/A   Partly Cloudy
6:15 PM 96.8 °F 105.1 °F 71.6 °F 44% 29.81 in 10.0 mi SW 5.8 mph - N/A   Clear
6:35 PM 95.0 °F 103.2 °F 71.6 °F 47% 29.81 in 10.0 mi WSW 5.8 mph - N/A   Unknown
6:55 PM 93.2 °F 100.5 °F 71.6 °F 49% 29.81 in 10.0 mi WSW 4.6 mph - N/A   Clear
7:15 PM 93.2 °F 100.5 °F 71.6 °F 49% 29.81 in 10.0 mi SW 6.9 mph - N/A   Clear
7:35 PM 93.2 °F 100.5 °F 71.6 °F 49% 29.81 in 10.0 mi SW 4.6 mph - N/A   Clear
7:55 PM 91.4 °F 98.4 °F 71.6 °F 52% 29.80 in 10.0 mi SSW 4.6 mph - N/A   Clear
8:15 PM 91.4 °F 98.4 °F 71.6 °F 52% 29.81 in 10.0 mi SSW 4.6 mph - N/A   Clear
8:35 PM 91.4 °F 98.4 °F 71.6 °F 52% 29.80 in 10.0 mi SW 4.6 mph - N/A   Clear
8:55 PM 89.6 °F 99.8 °F 75.2 °F 62% 29.81 in 10.0 mi SW 5.8 mph - N/A   Clear
9:15 PM 87.8 °F 97.6 °F 75.2 °F 66% 29.81 in 10.0 mi SSW 5.8 mph - N/A   Clear
9:35 PM 87.8 °F 97.6 °F 75.2 °F 66% 29.82 in 10.0 mi SW 6.9 mph - N/A   Clear
9:55 PM 87.8 °F 97.6 °F 75.2 °F 66% 29.83 in 10.0 mi SW 6.9 mph - N/A   Clear
10:15 PM 87.8 °F 97.6 °F 75.2 °F 66% 29.84 in 10.0 mi SW 4.6 mph - N/A   Clear
10:35 PM 86.0 °F 95.1 °F 75.2 °F 70% 29.85 in 10.0 mi SW 6.9 mph - N/A   Clear
10:55 PM 86.0 °F 95.1 °F 75.2 °F 70% 29.85 in 10.0 mi SW 6.9 mph - N/A   Clear
11:15 PM 84.2 °F 92.3 °F 75.2 °F 74% 29.84 in 10.0 mi WSW 3.5 mph - N/A   Clear
11:35 PM 84.2 °F 90.9 °F 73.4 °F 70% 29.85 in 10.0 mi SW 8.1 mph - N/A   Clear
11:55 PM 84.2 °F 92.3 °F 75.2 °F 74% 29.84 in 10.0 mi SSW 4.6 mph - N/A   Clear